Time,TemperatureF,DewpointF,PressureIn,WindDirection,WindDirectionDegrees,WindSpeedMPH,WindSpeedGustMPH,Humidity,HourlyPrecipIn,Conditions,Clouds,dailyrainin,SolarRadiationWatts/m^2,SoftwareType,DateUTC
2013-05-03 00:02:00,64.0,61.0,-100.00,SSE,153,0.0,1.0,90,0.00,,,0.00,0.000000,,2013-05-03 05:02:00,
2013-05-03 00:32:00,64.0,61.0,-100.00,SSE,163,2.0,3.0,89,0.00,,,0.00,0.000000,,2013-05-03 05:32:00,
2013-05-03 00:42:00,64.0,61.0,-100.00,SSE,163,2.0,3.0,89,0.00,,,0.00,0.000000,,2013-05-03 05:42:00,
2013-05-03 00:52:00,64.0,61.0,-100.00,SSE,163,2.0,3.0,89,0.00,,,0.00,0.000000,,2013-05-03 05:52:00,
2013-05-03 01:02:00,64.0,61.0,-100.00,SSE,163,2.0,3.0,89,0.00,,,0.00,0.000000,,2013-05-03 06:02:00,
2013-05-03 01:32:00,64.0,59.0,-100.00,SSW,198,2.0,5.0,85,0.00,,,-99.99,0.000000,,2013-05-03 06:32:00,
2013-05-03 01:42:00,64.0,59.0,-100.00,SSW,198,2.0,5.0,85,0.00,,,-99.99,0.000000,,2013-05-03 06:42:00,
2013-05-03 01:52:00,64.0,59.0,-100.00,SSW,198,2.0,5.0,85,0.00,,,-99.99,0.000000,,2013-05-03 06:52:00,
2013-05-03 02:01:00,64.0,59.0,-100.00,SSW,198,2.0,5.0,85,0.00,,,-99.99,0.000000,,2013-05-03 07:01:00,
2013-05-03 02:32:00,62.0,60.0,-100.00,East,88,1.0,3.0,93,0.00,,,-99.99,0.000000,,2013-05-03 07:32:00,
2013-05-03 02:42:00,62.0,60.0,-100.00,East,88,1.0,3.0,93,0.00,,,-99.99,0.000000,,2013-05-03 07:42:00,
2013-05-03 02:52:00,62.0,60.0,-100.00,East,88,1.0,3.0,93,0.00,,,-99.99,0.000000,,2013-05-03 07:52:00,
2013-05-03 03:02:00,62.0,60.0,-100.00,East,88,1.0,3.0,93,0.00,,,-99.99,0.000000,,2013-05-03 08:02:00,
2013-05-03 03:32:00,61.0,60.0,-100.00,South,180,2.0,6.0,95,0.00,,,0.00,0.000000,,2013-05-03 08:32:00,
2013-05-03 03:42:00,61.0,60.0,-100.00,South,180,2.0,6.0,95,0.00,,,0.00,0.000000,,2013-05-03 08:42:00,
2013-05-03 03:53:00,61.0,60.0,-100.00,South,180,2.0,6.0,95,0.00,,,0.00,0.000000,,2013-05-03 08:53:00,
2013-05-03 04:01:00,61.0,60.0,-100.00,South,180,2.0,6.0,95,0.00,,,0.00,0.000000,,2013-05-03 09:01:00,
2013-05-03 04:33:00,61.0,56.0,-100.00,SSE,162,2.0,6.0,85,0.00,,,0.00,0.000000,,2013-05-03 09:33:00,
2013-05-03 04:42:00,61.0,56.0,-100.00,SSE,162,2.0,6.0,85,0.00,,,0.00,0.000000,,2013-05-03 09:42:00,
2013-05-03 04:53:00,61.0,56.0,-100.00,SSE,162,2.0,6.0,85,0.00,,,0.00,0.000000,,2013-05-03 09:53:00,
2013-05-03 05:03:00,61.0,56.0,-100.00,SSE,162,2.0,6.0,85,0.00,,,0.00,0.000000,,2013-05-03 10:03:00,
2013-05-03 05:32:00,59.0,57.0,-100.00,East,99,0.0,3.0,93,0.00,,,0.00,0.000000,,2013-05-03 10:32:00,
2013-05-03 05:42:00,59.0,57.0,-100.00,East,99,0.0,3.0,93,0.00,,,0.00,0.000000,,2013-05-03 10:42:00,
2013-05-03 05:52:00,59.0,57.0,-100.00,East,99,0.0,3.0,93,0.00,,,0.00,0.000000,,2013-05-03 10:52:00,
2013-05-03 06:02:00,59.0,57.0,-100.00,East,99,0.0,3.0,93,0.00,,,0.00,0.000000,,2013-05-03 11:02:00,
2013-05-03 06:32:00,58.0,58.0,-100.00,ESE,117,1.0,2.0,100,0.00,,,0.00,3.000000,,2013-05-03 11:32:00,
2013-05-03 06:42:00,58.0,58.0,-100.00,ESE,117,1.0,2.0,100,0.00,,,0.00,3.000000,,2013-05-03 11:42:00,
2013-05-03 06:52:00,58.0,58.0,-100.00,ESE,117,1.0,2.0,100,0.00,,,0.00,3.000000,,2013-05-03 11:52:00,
2013-05-03 07:01:00,58.0,58.0,-100.00,ESE,117,1.0,2.0,100,0.00,,,0.00,3.000000,,2013-05-03 12:01:00,
2013-05-03 07:32:00,60.0,59.0,-100.00,East,99,1.0,2.0,95,0.00,,,-99.99,34.000000,,2013-05-03 12:32:00,
2013-05-03 07:42:00,60.0,59.0,-100.00,East,99,1.0,2.0,95,0.00,,,-99.99,34.000000,,2013-05-03 12:42:00,
2013-05-03 07:52:00,60.0,59.0,-100.00,East,99,1.0,2.0,95,0.00,,,-99.99,34.000000,,2013-05-03 12:52:00,
2013-05-03 08:01:00,60.0,59.0,-100.00,East,99,1.0,2.0,95,0.00,,,-99.99,34.000000,,2013-05-03 13:01:00,
2013-05-03 08:32:00,63.0,59.0,-100.00,SSE,157,2.0,4.0,86,0.00,,,0.00,113.000000,,2013-05-03 13:32:00,
2013-05-03 08:42:00,63.0,59.0,-100.00,SSE,157,2.0,4.0,86,0.00,,,0.00,113.000000,,2013-05-03 13:42:00,
2013-05-03 08:52:00,63.0,59.0,-100.00,SSE,157,2.0,4.0,86,0.00,,,0.00,113.000000,,2013-05-03 13:52:00,
2013-05-03 09:02:00,63.0,59.0,-100.00,SSE,157,2.0,4.0,86,0.00,,,0.00,113.000000,,2013-05-03 14:02:00,
2013-05-03 09:32:00,70.0,59.0,-100.00,South,188,5.0,11.0,69,0.00,,,0.00,373.000000,,2013-05-03 14:32:00,
2013-05-03 09:42:00,70.0,59.0,-100.00,South,188,5.0,11.0,69,0.00,,,0.00,373.000000,,2013-05-03 14:42:00,
2013-05-03 09:52:00,70.0,59.0,-100.00,South,188,5.0,11.0,69,0.00,,,0.00,373.000000,,2013-05-03 14:52:00,
2013-05-03 10:01:00,70.0,59.0,-100.00,South,188,5.0,11.0,69,0.00,,,0.00,373.000000,,2013-05-03 15:01:00,
2013-05-03 10:32:00,70.0,56.0,-100.00,South,174,5.0,12.0,62,0.00,,,0.00,466.000000,,2013-05-03 15:32:00,
2013-05-03 10:43:00,70.0,56.0,-100.00,South,174,5.0,12.0,62,0.00,,,0.00,466.000000,,2013-05-03 15:43:00,
2013-05-03 10:53:00,70.0,56.0,-100.00,South,174,5.0,12.0,62,0.00,,,0.00,466.000000,,2013-05-03 15:53:00,
2013-05-03 11:03:00,70.0,56.0,-100.00,South,174,5.0,12.0,62,0.00,,,0.00,466.000000,,2013-05-03 16:03:00,
2013-05-03 11:33:00,72.0,57.0,-100.00,South,172,6.0,13.0,60,0.00,,,0.00,452.000000,,2013-05-03 16:33:00,
2013-05-03 11:42:00,72.0,57.0,-100.00,South,172,6.0,13.0,60,0.00,,,0.00,452.000000,,2013-05-03 16:42:00,
2013-05-03 11:52:00,72.0,57.0,-100.00,South,172,6.0,13.0,60,0.00,,,0.00,452.000000,,2013-05-03 16:52:00,
2013-05-03 12:02:00,72.0,57.0,-100.00,South,172,6.0,13.0,60,0.00,,,0.00,452.000000,,2013-05-03 17:02:00,
2013-05-03 12:32:00,73.0,56.0,-100.00,South,177,5.0,15.0,55,0.00,,,0.00,559.000000,,2013-05-03 17:32:00,
2013-05-03 12:42:00,73.0,56.0,-100.00,South,177,5.0,15.0,55,0.00,,,0.00,559.000000,,2013-05-03 17:42:00,
2013-05-03 12:52:00,73.0,56.0,-100.00,South,177,5.0,15.0,55,0.00,,,0.00,559.000000,,2013-05-03 17:52:00,
2013-05-03 13:01:00,73.0,56.0,-100.00,South,177,5.0,15.0,55,0.00,,,0.00,559.000000,,2013-05-03 18:01:00,
2013-05-03 13:32:00,78.0,57.0,-100.00,South,177,5.0,14.0,49,0.00,,,0.00,720.000000,,2013-05-03 18:32:00,
2013-05-03 13:42:00,78.0,57.0,-100.00,South,177,5.0,14.0,49,0.00,,,0.00,720.000000,,2013-05-03 18:42:00,
2013-05-03 13:52:00,78.0,57.0,-100.00,South,177,5.0,14.0,49,0.00,,,0.00,720.000000,,2013-05-03 18:52:00,
2013-05-03 14:01:00,78.0,57.0,-100.00,South,177,5.0,14.0,49,0.00,,,0.00,720.000000,,2013-05-03 19:01:00,
2013-05-03 14:32:00,78.0,56.0,-100.00,South,171,6.0,15.0,46,0.00,,,0.00,678.000000,,2013-05-03 19:32:00,
2013-05-03 14:42:00,78.0,56.0,-100.00,South,171,6.0,15.0,46,0.00,,,0.00,678.000000,,2013-05-03 19:42:00,
2013-05-03 14:52:00,78.0,56.0,-100.00,South,171,6.0,15.0,46,0.00,,,0.00,678.000000,,2013-05-03 19:52:00,
2013-05-03 15:02:00,78.0,56.0,-100.00,South,171,6.0,15.0,46,0.00,,,0.00,678.000000,,2013-05-03 20:02:00,
2013-05-03 15:32:00,77.0,54.0,-100.00,South,188,6.0,12.0,45,0.00,,,0.00,530.000000,,2013-05-03 20:32:00,
2013-05-03 15:42:00,77.0,54.0,-100.00,South,188,6.0,12.0,45,0.00,,,0.00,530.000000,,2013-05-03 20:42:00,
2013-05-03 15:52:00,77.0,54.0,-100.00,South,188,6.0,12.0,45,0.00,,,0.00,530.000000,,2013-05-03 20:52:00,
2013-05-03 16:01:00,77.0,54.0,-100.00,South,188,6.0,12.0,45,0.00,,,0.00,530.000000,,2013-05-03 21:01:00,
2013-05-03 16:33:00,74.0,51.0,-100.00,SSW,192,6.0,13.0,45,0.00,,,0.00,383.000000,,2013-05-03 21:33:00,
2013-05-03 16:43:00,74.0,51.0,-100.00,SSW,192,6.0,13.0,45,0.00,,,0.00,383.000000,,2013-05-03 21:43:00,
2013-05-03 16:53:00,74.0,51.0,-100.00,SSW,192,6.0,13.0,45,0.00,,,0.00,383.000000,,2013-05-03 21:53:00,
2013-05-03 17:02:00,74.0,51.0,-100.00,SSW,192,6.0,13.0,45,0.00,,,0.00,383.000000,,2013-05-03 22:02:00,
2013-05-03 20:32:00,64.0,52.0,-100.00,South,180,6.0,13.0,65,-99.99,,,0.00,3.000000,,2013-05-04 01:32:00,
2013-05-03 20:42:00,64.0,52.0,-100.00,South,180,6.0,13.0,65,-99.99,,,0.00,3.000000,,2013-05-04 01:42:00,
2013-05-03 20:52:00,64.0,52.0,-100.00,South,180,6.0,13.0,65,-99.99,,,0.00,3.000000,,2013-05-04 01:52:00,
2013-05-03 21:02:00,64.0,52.0,-100.00,South,180,6.0,13.0,65,-99.99,,,0.00,3.000000,,2013-05-04 02:02:00,
2013-05-03 21:32:00,63.0,51.0,-100.00,SSW,194,4.0,12.0,66,0.00,,,0.00,0.000000,,2013-05-04 02:32:00,
2013-05-03 21:42:00,63.0,51.0,-100.00,SSW,194,4.0,12.0,66,0.00,,,0.00,0.000000,,2013-05-04 02:42:00,
2013-05-03 21:52:00,63.0,51.0,-100.00,SSW,194,4.0,12.0,66,0.00,,,0.00,0.000000,,2013-05-04 02:52:00,
2013-05-03 22:02:00,63.0,51.0,-100.00,SSW,194,4.0,12.0,66,0.00,,,0.00,0.000000,,2013-05-04 03:02:00,
2013-05-03 22:33:00,63.0,52.0,-100.00,South,181,4.0,10.0,67,0.00,,,0.00,0.000000,,2013-05-04 03:33:00,
2013-05-03 22:43:00,63.0,52.0,-100.00,South,181,4.0,10.0,67,0.00,,,0.00,0.000000,,2013-05-04 03:43:00,
2013-05-03 22:53:00,63.0,52.0,-100.00,South,181,4.0,10.0,67,0.00,,,0.00,0.000000,,2013-05-04 03:53:00,
2013-05-03 23:02:00,63.0,52.0,-100.00,South,181,4.0,10.0,67,0.00,,,0.00,0.000000,,2013-05-04 04:02:00,
2013-05-03 23:33:00,63.0,51.0,-100.00,SSW,198,3.0,12.0,65,0.00,,,0.00,0.000000,,2013-05-04 04:33:00,
2013-05-03 23:43:00,63.0,51.0,-100.00,SSW,198,3.0,12.0,65,0.00,,,0.00,0.000000,,2013-05-04 04:43:00,
2013-05-03 23:52:00,63.0,51.0,-100.00,SSW,198,3.0,12.0,65,0.00,,,0.00,0.000000,,2013-05-04 04:52:00,